Valley City, ND

2:12 PM CST on November 21, 2019 (GMT -0600)
Valley City

Weather History for KBAC - August, 2019

Change the Weather History Date:

Friday, August 30, 2019

  Actual Average (KJMS) Record (KJMS)
Temperature  
Mean Temperature 56 °F -  
Max Temperature 69 °F 79 °F 97 °F (1929)
Min Temperature 42 °F 52 °F 34 °F (1931)
Degree Days  
Heating Degree Days 10    
Growing Degree Days 6 (Base 50)    
Moisture  
Dew Point 49 °F    
Average Humidity 73    
Maximum Humidity 100    
Minimum Humidity 43    
Precipitation  
Precipitation 0.00 in - - ()
Sea Level Pressure  
Sea Level Pressure 30.19 in    
Wind  
Wind Speed 3 mph ()    
Max Wind Speed 9 mph    
Max Gust Speed 24 mph    
Visibility 10.0 miles    
Events      
Averages and records for this station are not official NWS values.
T = Trace of Precipitation, MM = Missing Value Source: Averaged Metar Reports

Daily Weather History Graph

Daily Weather History Graph

Search for Another Location

Airport or City:

Astronomy

Aug. 30, 2019 Rise Set
Actual Time 6:48 AM CDT 8:15 PM CDT
Civil Twilight 6:17 AM CDT 8:47 PM CDT
Nautical Twilight 5:38 AM CDT 9:25 PM CDT
Astronomical Twilight 4:57 AM CDT 10:06 PM CDT
Moon 6:47 AM CDT (8/30) 8:53 PM CDT (8/30)
Length of Visible Light 14h 30m
Length of Day
13h 27m
New Moon, 0% of the Moon is Illuminated
Aug 30
New Moon
Sep 5
First Quarter
Sep 13
Full
Sep 21
Last Quarter
Sep 28
New

Hourly Weather History & Observations

Time (CDT) Temp. Windchill Dew Point Humidity Pressure Visibility Wind Dir Wind Speed Gust Speed Precip Events Conditions
12:15 AM 51.8 °F - 50.0 °F 94% 30.11 in 10.0 mi West 3.5 mph - N/A   Clear
12:35 AM 51.8 °F - 50.0 °F 94% 30.11 in 10.0 mi Calm Calm - N/A   Clear
12:55 AM 51.8 °F - 51.8 °F 100% 30.11 in 10.0 mi WNW 6.9 mph - N/A   Clear
1:15 AM 51.8 °F - 51.8 °F 100% 30.11 in 10.0 mi WNW 5.8 mph - N/A   Scattered Clouds
1:35 AM 51.8 °F - 51.8 °F 100% 30.12 in 10.0 mi Calm Calm - N/A   Overcast
1:55 AM 51.8 °F - 51.8 °F 100% 30.12 in 10.0 mi West 6.9 mph - N/A   Overcast
2:15 AM 50.0 °F - 50.0 °F 100% 30.12 in 10.0 mi Calm Calm - N/A   Mostly Cloudy
2:35 AM 50.0 °F - 50.0 °F 100% 30.11 in 10.0 mi WNW 5.8 mph - N/A   Clear
2:55 AM 50.0 °F - 50.0 °F 100% 30.12 in 10.0 mi West 3.5 mph - N/A   Clear
3:15 AM 50.0 °F - 50.0 °F 100% 30.12 in 10.0 mi Calm Calm - N/A   Clear
3:35 AM 50.0 °F - 50.0 °F 100% 30.12 in 10.0 mi Calm Calm - N/A   Clear
3:55 AM 48.2 °F - 48.2 °F 100% 30.12 in 10.0 mi NW 4.6 mph - N/A   Clear
4:15 AM 48.2 °F - 48.2 °F 100% 30.13 in 10.0 mi Calm Calm - N/A   Clear
4:35 AM 48.2 °F - 48.2 °F 100% 30.14 in 10.0 mi Calm Calm - N/A   Clear
4:55 AM 46.4 °F 44.3 °F 46.4 °F 100% 30.14 in 10.0 mi NNW 4.6 mph - N/A   Clear
5:15 AM 44.6 °F 42.2 °F 44.6 °F 100% 30.16 in 10.0 mi WNW 4.6 mph - N/A   Clear
5:35 AM 46.4 °F 44.3 °F 46.4 °F 100% 30.16 in 10.0 mi NW 4.6 mph - N/A   Clear
5:55 AM 46.4 °F 43.5 °F 46.4 °F 100% 30.17 in 10.0 mi WNW 5.8 mph - N/A   Clear
6:15 AM 44.6 °F - 44.6 °F 100% 30.18 in 10.0 mi Calm Calm - N/A   Clear
6:35 AM 44.6 °F 43.1 °F 44.6 °F 100% 30.18 in 10.0 mi SSW 3.5 mph - N/A   Clear
6:55 AM 42.8 °F 41.1 °F 42.8 °F 100% 30.19 in 10.0 mi SW 3.5 mph - N/A   Clear
7:15 AM 44.6 °F - 44.6 °F 100% 30.20 in 10.0 mi Calm Calm - N/A   Clear
7:35 AM 46.4 °F - 46.4 °F 100% 30.20 in 10.0 mi Calm Calm - N/A   Clear
7:55 AM 50.0 °F - 50.0 °F 100% 30.20 in 10.0 mi Calm Calm - N/A   Clear
8:15 AM 51.8 °F - 51.8 °F 100% 30.20 in 10.0 mi Calm Calm - N/A   Clear
8:35 AM 53.6 °F - 53.6 °F 100% 30.20 in 10.0 mi WNW 4.6 mph - N/A   Clear
8:55 AM 55.4 °F - 53.6 °F 94% 30.21 in 10.0 mi Calm Calm - N/A   Clear
9:15 AM 55.4 °F - 53.6 °F 94% 30.21 in 10.0 mi WNW 4.6 mph - N/A   Clear
9:35 AM 57.2 °F - 53.6 °F 88% 30.22 in 10.0 mi Calm Calm - N/A   Clear
10:15 AM 60.8 °F - 51.8 °F 72% 30.23 in 10.0 mi Calm Calm - N/A   Clear
10:35 AM 62.6 °F - 48.2 °F 59% 30.24 in 10.0 mi Calm Calm - N/A   Clear
10:55 AM 64.4 °F - 46.4 °F 52% 30.24 in 10.0 mi WNW 5.8 mph - N/A   Clear
11:15 AM 64.4 °F - 46.4 °F 52% 30.24 in 10.0 mi West 4.6 mph - N/A   Clear
11:35 AM 66.2 °F - 46.4 °F 49% 30.24 in 10.0 mi Variable 3.5 mph - N/A   Clear
12:15 PM 66.2 °F - 48.2 °F 52% 30.23 in 10.0 mi Variable 6.9 mph - N/A   Clear
12:35 PM 66.2 °F - 46.4 °F 49% 30.23 in 10.0 mi WNW 9.2 mph - N/A   Clear
12:55 PM 68.0 °F - 46.4 °F 46% 30.22 in 10.0 mi WNW 5.8 mph 12.7 mph N/A   Clear
1:15 PM 68.0 °F - 48.2 °F 49% 30.22 in 10.0 mi WSW 9.2 mph - N/A   Scattered Clouds
1:35 PM 68.0 °F - 46.4 °F 46% 30.22 in 10.0 mi WSW 5.8 mph 13.8 mph N/A   Scattered Clouds
1:55 PM 68.0 °F - 46.4 °F 46% 30.22 in 10.0 mi Variable 4.6 mph - N/A   Scattered Clouds
2:15 PM 66.2 °F - 46.4 °F 49% 30.22 in 10.0 mi NW 5.8 mph - N/A   Partly Cloudy
2:35 PM 68.0 °F - 46.4 °F 46% 30.22 in 10.0 mi Variable 4.6 mph 24.2 mph N/A   Scattered Clouds
2:55 PM 68.0 °F - 44.6 °F 43% 30.21 in 10.0 mi Variable 5.8 mph - N/A   Partly Cloudy
3:15 PM 69.8 °F - 46.4 °F 43% 30.21 in 10.0 mi WNW 8.1 mph - N/A   Partly Cloudy
3:35 PM 68.0 °F - 44.6 °F 43% 30.21 in 10.0 mi Calm Calm - N/A   Partly Cloudy
3:55 PM 68.0 °F - 44.6 °F 43% 30.21 in 10.0 mi Calm Calm - N/A   Clear
4:15 PM 69.8 °F - 46.4 °F 43% 30.21 in 10.0 mi Calm Calm 11.5 mph N/A   Clear
4:35 PM 69.8 °F - 46.4 °F 43% 30.20 in 10.0 mi Calm Calm 11.5 mph N/A   Clear
4:55 PM 69.8 °F - 46.4 °F 43% 30.20 in 10.0 mi NW 6.9 mph - N/A   Clear
5:15 PM 69.8 °F - 46.4 °F 43% 30.20 in 10.0 mi Calm Calm - N/A   Clear
5:35 PM 68.0 °F - 46.4 °F 46% 30.20 in 10.0 mi Calm Calm - N/A   Clear
5:55 PM 68.0 °F - 46.4 °F 46% 30.20 in 10.0 mi NNW 4.6 mph - N/A   Clear
6:15 PM 66.2 °F - 48.2 °F 52% 30.19 in 10.0 mi NNE 4.6 mph - N/A   Clear
6:35 PM 66.2 °F - 50.0 °F 56% 30.19 in 10.0 mi Calm Calm - N/A   Clear
6:55 PM 66.2 °F - 51.8 °F 60% 30.19 in 10.0 mi Calm Calm - N/A   Clear
7:15 PM 66.2 °F - 51.8 °F 60% 30.19 in 10.0 mi Calm Calm - N/A   Clear
7:35 PM 64.4 °F - 51.8 °F 64% 30.19 in 10.0 mi ENE 3.5 mph - N/A   Clear
7:55 PM 62.6 °F - 51.8 °F 68% 30.19 in 10.0 mi East 3.5 mph - N/A   Clear
8:15 PM 62.6 °F - 50.0 °F 63% 30.19 in 9.0 mi NE 4.6 mph - N/A   Clear
8:35 PM 62.6 °F - 50.0 °F 63% 30.20 in 10.0 mi ESE 4.6 mph - N/A   Clear
8:55 PM 60.8 °F - 50.0 °F 68% 30.21 in 10.0 mi ESE 4.6 mph - N/A   Clear
9:15 PM 60.8 °F - 51.8 °F 72% 30.22 in 10.0 mi East 4.6 mph - N/A   Clear
9:35 PM 60.8 °F - 50.0 °F 68% 30.22 in 10.0 mi East 4.6 mph - N/A   Clear
9:55 PM 60.8 °F - 50.0 °F 68% 30.22 in 10.0 mi SE 6.9 mph - N/A   Clear
10:15 PM 60.8 °F - 50.0 °F 68% 30.23 in 10.0 mi SE 6.9 mph - N/A   Clear
10:35 PM 60.8 °F - 48.2 °F 63% 30.23 in 10.0 mi SE 6.9 mph - N/A   Clear
10:55 PM 60.8 °F - 48.2 °F 63% 30.24 in 10.0 mi SSE 6.9 mph - N/A   Clear
11:15 PM 59.0 °F - 50.0 °F 72% 30.25 in 10.0 mi South 6.9 mph - N/A   Clear
11:35 PM 57.2 °F - 50.0 °F 77% 30.25 in 10.0 mi South 5.8 mph - N/A   Clear
11:55 PM 59.0 °F - 50.0 °F 72% 30.25 in 10.0 mi SSE 4.6 mph - N/A   Clear